Regional Weather Roundup
Issued by NWS

Home | Current Version | Previous Version | Text Only | Print | Product List | Glossary Off
Versions: 1 2 3 4 5 6 7 8 9 10 11 12 13 14 15 16 17 18 19 20 21 22 23 24 25 26 27 28 29 30 31 32 33 34 35 36 37 38 39 40 41 42 43 44 45 46 47 48 49 50

000
ASUS43 KIND 231059
RWRIN

WEATHER ROUNDUP FOR INDIANA
NATIONAL WEATHER SERVICE INDIANAPOLIS IN
700 AM EDT TUE SEP 23 2014

NOTE: "FAIR" INDICATES FEW OR NO CLOUDS BELOW 12,000 FEET WITH NO
SIGNIFICANT WEATHER AND/OR OBSTRUCTIONS TO VISIBILITY.

* - STATION DOES NOT REPORT WEATHER SUCH AS PRECIPITATION OR FOG.

+ - STATION NOT QUALITY CONTROLLED BY THE NATIONAL WEATHER SERVICE.
    USE DATA WITH CAUTION...ESPECIALLY DEWPOINT AND RELATIVE
    HUMIDITY OBSERVATIONS.

INZ001>003-010>013-019-020-231200-
NORTHWEST INDIANA

CITY           SKY/WX    TMP DP  RH WIND       PRES   REMARKS
GARY /AIRPORT/ CLEAR     45  43  93 S3        30.32R
VALPARAISO     CLEAR     44  43  96 CALM      30.32R

$$

LMZ046-743>745-231200-
SOUTHERN LAKE MICHIGAN

STATION/POSITION TIME  TEMP WIND        PRES
                       AIR  DIR/SP/G
                 (UTC) (F)  (DEG/KT/KT) (MB)

$$

INZ004-005-014>016-021>024-231200-
NORTH CENTRAL INDIANA

CITY           SKY/WX    TMP DP  RH WIND       PRES   REMARKS
ELKHART        PTCLDY    43  43 100 CALM      30.32
GOSHEN         CLEAR    N/A N/A N/A CALM      30.32R
PERU/GRISSOM   CLEAR     45  45 100 SE2       30.32R
SOUTH BEND     CLEAR     45  41  86 CALM      30.33R
WARSAW +       CLEAR     41  41 100 CALM      30.32R FOG

$$

INZ006>009-017-018-025>027-231200-
NORTHEAST INDIANA

CITY           SKY/WX    TMP DP  RH WIND       PRES   REMARKS
ANGOLA *+      MOCLDY    41  39  93 CALM      30.32R VSB 3/4
FORT WAYNE     CLEAR     41  39  93 CALM      30.34R

$$

INZ028-029-035-036-043>045-051>053-231200-
WEST CENTRAL INDIANA

CITY           SKY/WX    TMP DP  RH WIND       PRES   REMARKS
GREENCASTLE +  CLEAR     45  43  93 CALM      30.32R
LAFAYETTE      CLEAR     44  43  96 CALM      30.32R
TERRE HAUTE    CLEAR     42  41  96 CALM      30.32R

$$

INZ030>032-037>040-046>048-054>057-064-065-231200-
CENTRAL INDIANA

CITY           SKY/WX    TMP DP  RH WIND       PRES   REMARKS
COLUMBUS       CLEAR     39  39 100 CALM      30.31
FRANKFORT +    CLEAR    N/A N/A N/A SE3       30.33R
INDIANAPOLIS   CLEAR     49  44  83 NE5       30.31R
-EAGLE CREEK   CLEAR     47  43  86 CALM      30.31R
KOKOMO *+      CLEAR     43  39  87 CALM      30.33R
MT COMFORT *+  CLEAR     39 N/A N/A CALM      30.32R
SHELBYVILLE    CLEAR     43  39  86 E3        30.31R

$$

INZ033-034-041-042-049-050-058-059-231200-
EAST CENTRAL INDIANA

CITY           SKY/WX    TMP DP  RH WIND       PRES   REMARKS
MUNCIE         CLEAR     41  39  93 CALM      30.32R FOG

$$

INZ060-061-067>069-081>083-085>088-231200-
SOUTHWEST INDIANA

CITY           SKY/WX    TMP DP  RH WIND       PRES   REMARKS
EVANSVILLE     CLEAR     47  44  90 CALM      30.30R

$$

INZ062-063-066-070>080-084-089>092-231200-
SOUTH CENTRAL AND SOUTHEAST INDIANA

CITY           SKY/WX    TMP DP  RH WIND       PRES   REMARKS
BLOOMINGTON    CLEAR     42  40  92 CALM      30.31R FOG

$$



USA.gov is the U.S. government's official web portal to all federal, state and local government web resources and services.